Location: Borotín
(49.5055°N, 14.6142°E)
Time: 05:49:18
(UTC+00:00)

SL-16 R/B - Pass Details

Date: 27 May 2022
Orbit: 839 x 850 km, 71.0° (Epoch: 28 June)

Event Time Altitude Azimuth Distance (km) Brightness Sun altitude
Exits shadow 00:02:34 20° 152° (SSE) 1,875 3.6 -17.8°
Maximum altitude 00:05:33 31° 105° (ESE) 1,430 3.4 -17.7°
Drops below altitude 10° 00:10:29 10° 45° (NE) 2,476 5.6 -17.5°
Sets 00:13:10 0° 36° (NE) 3,418 6.8 -17.3°
